TimePDT,TemperatureF,Dew PointF,Humidity,Sea Level PressureIn,VisibilityMPH,Wind Direction,Wind SpeedMPH,Gust SpeedMPH,PrecipitationIn,Events,Conditions,WindDirDegrees,DateUTC
12:56 AM,52.0,45.0,77,30.01,10.0,Calm,Calm,-,N/A,,Clear,0,2013-10-19 07:56:00
1:31 AM,50.0,44.6,82,30.02,10.0,Calm,Calm,-,N/A,,Scattered Clouds,0,2013-10-19 08:31:00
1:52 AM,51.8,48.2,88,30.02,8.0,Calm,Calm,-,N/A,,Mostly Cloudy,0,2013-10-19 08:52:00
1:56 AM,51.1,48.9,92,30.01,5.0,Calm,Calm,-,N/A,,Mostly Cloudy,0,2013-10-19 08:56:00
2:11 AM,50.0,48.2,94,30.02,1.5,Calm,Calm,-,N/A,,Overcast,0,2013-10-19 09:11:00
2:21 AM,50.0,48.2,94,30.02,0.2,Calm,Calm,-,N/A,Fog,Fog,0,2013-10-19 09:21:00
2:56 AM,48.9,48.0,97,30.01,0.2,Calm,Calm,-,N/A,Fog,Fog,0,2013-10-19 09:56:00
3:56 AM,48.0,48.0,100,30.00,0.2,Calm,Calm,-,N/A,Fog,Fog,0,2013-10-19 10:56:00
4:56 AM,48.0,46.0,93,30.00,0.2,Calm,Calm,-,N/A,Fog,Fog,0,2013-10-19 11:56:00
5:09 AM,46.4,46.4,100,30.01,0.8,Calm,Calm,-,N/A,,Mist,0,2013-10-19 12:09:00
5:36 AM,46.4,46.4,100,30.01,0.2,Calm,Calm,-,N/A,Fog,Fog,0,2013-10-19 12:36:00
5:56 AM,46.0,46.0,100,30.01,0.2,Calm,Calm,-,N/A,Fog,Fog,0,2013-10-19 12:56:00
6:56 AM,46.9,46.0,97,30.02,0.2,Calm,Calm,-,N/A,Fog,Fog,0,2013-10-19 13:56:00
7:56 AM,48.0,48.0,100,30.03,0.2,Calm,Calm,-,N/A,Fog,Fog,0,2013-10-19 14:56:00
8:56 AM,51.1,50.0,96,30.05,0.2,Calm,Calm,-,N/A,Fog,Fog,0,2013-10-19 15:56:00
9:29 AM,51.8,51.8,100,30.05,0.2,Calm,Calm,-,N/A,Fog,Fog,0,2013-10-19 16:29:00
9:45 AM,51.8,51.8,100,30.04,0.5,Calm,Calm,-,N/A,Fog,Fog,0,2013-10-19 16:45:00
9:52 AM,53.6,51.8,94,30.04,1.0,Calm,Calm,-,N/A,,Mostly Cloudy,0,2013-10-19 16:52:00
9:56 AM,53.1,52.0,96,30.04,4.0,Calm,Calm,-,N/A,,Scattered Clouds,0,2013-10-19 16:56:00
10:56 AM,66.0,48.9,54,30.03,10.0,Calm,Calm,-,N/A,,Scattered Clouds,0,2013-10-19 17:56:00
11:56 AM,73.0,48.9,42,30.02,10.0,West,3.5,-,N/A,,Clear,270,2013-10-19 18:56:00
12:56 PM,78.1,50.0,37,30.01,10.0,WNW,8.1,-,N/A,,Clear,290,2013-10-19 19:56:00
1:56 PM,72.0,52.0,49,29.99,10.0,NW,13.8,-,N/A,,Clear,310,2013-10-19 20:56:00
2:56 PM,71.1,53.1,53,29.99,10.0,NW,10.4,-,N/A,,Clear,310,2013-10-19 21:56:00
3:56 PM,73.0,46.9,39,29.99,10.0,WNW,10.4,-,N/A,,Clear,300,2013-10-19 22:56:00
4:56 PM,66.9,51.1,57,30.00,10.0,NW,12.7,-,N/A,,Clear,310,2013-10-19 23:56:00
5:56 PM,61.0,53.1,75,30.01,10.0,NW,10.4,-,N/A,,Clear,310,2013-10-20 00:56:00
6:56 PM,57.0,53.1,87,30.03,10.0,WNW,4.6,-,N/A,,Clear,290,2013-10-20 01:56:00
7:56 PM,55.9,52.0,87,30.03,10.0,ESE,5.8,-,N/A,,Clear,120,2013-10-20 02:56:00
8:56 PM,55.0,51.1,86,30.04,9.0,East,3.5,-,N/A,,Clear,100,2013-10-20 03:56:00
9:15 PM,53.6,50.0,88,30.04,10.0,Calm,Calm,-,N/A,,Scattered Clouds,0,2013-10-20 04:15:00
9:24 PM,53.6,50.0,88,30.04,10.0,Calm,Calm,-,N/A,,Mostly Cloudy,0,2013-10-20 04:24:00
9:56 PM,55.0,52.0,89,30.04,8.0,Calm,Calm,-,N/A,,Overcast,0,2013-10-20 04:56:00
10:24 PM,53.6,53.6,100,30.04,1.8,Calm,Calm,-,N/A,,Overcast,0,2013-10-20 05:24:00
10:42 PM,53.6,53.6,100,30.04,2.5,Calm,Calm,-,N/A,,Overcast,0,2013-10-20 05:42:00
10:56 PM,55.0,53.1,93,30.04,5.0,Calm,Calm,-,N/A,,Overcast,0,2013-10-20 05:56:00
11:46 PM,53.6,53.6,100,30.04,2.5,NW,3.5,-,N/A,,Overcast,320,2013-10-20 06:46:00
11:56 PM,54.0,53.1,97,30.04,2.5,NW,4.6,-,N/A,,Overcast,310,2013-10-20 06:56:00